Tracking 30306 objects as of 23-Apr-2025
HD Live streaming from Space Station
objects crossing your sky now

METEOR 2-11 DEB

Track METEOR 2-11 DEB now!
10-day predictions


NORAD ID: 45517
Int'l Code: 1984-072X
Perigee: 888.7 km
Apogee: 906.9 km
Inclination: 82.5 °
Period: 102.8 minutes
Semi major axis: 7268 km
RCS: Unknown
Launch date: July 5, 1984
Source: Commonwealth of Independent States (former USSR) (CIS)
Launch site: PLESETSK MISSILE AND SPACE COMPLEX (PKMTR)

Note: This is SATELLITE DEBRIS
Your satellite tracking list
Your tracking list is empty




NASA's NSSDC Master Catalog

Two Line Element Set (TLE):
1 45517U 84072X   25107.41458572  .00005024  00000-0  33490-2 0  9996
2 45517  82.5229 342.6635 0012532  34.7868  84.0795 14.00904464533433
Source of the keplerian elements: AFSPC